GW0587 Weather Reports


Display with metric or nautical units.
time (UTC)temp
F
wind
direction
speed
MPH
gust
MPH
rain 1hr
in
rain 24hr
in
rain mn
in
humidity
%
barometer
mb
20260831074549 78 0 0.0 0.0 0.00 0.00 0.00 78 1017.6
20260831073057 78 0 0.0 0.0 0.00 0.00 0.00 78 1017.6
20260831071549 78 0 0.0 0.0 0.00 0.00 0.00 77 1017.6
20260831070050 79 0 0.0 0.0 0.00 0.00 0.00 76 1017.6
20260831064557 79 0 0.0 0.0 0.00 0.00 0.00 76 1017.7
20260831063051 80 0 0.0 0.0 0.00 0.00 0.00 75 1017.8
20260831061548 80 0 0.0 0.0 0.00 0.00 0.00 74 1017.9
20260831054558 82 0 0.0 0.0 0.00 0.00 0.00 71 1018.0
20260831053053 82 0 0.0 0.0 0.00 0.00 0.00 71 1017.9
20260831051607 83 0 0.0 1.0 0.00 0.00 0.00 69 1017.9
20260831050055 83 0 0.0 0.0 0.00 0.00 0.00 68 1017.8
20260831044602 84 0 0.0 1.0 0.00 0.00 0.00 68 1017.8
20260831043048 84 0 0.0 0.0 0.00 0.00 0.00 67 1017.9
20260831041600 84 0 0.0 3.0 0.00 0.00 0.00 66 1017.9
20260831040049 85 0 0.0 0.0 0.00 0.00 0.00 65 1017.9
20260831034554 85 0 0.0 0.0 0.00 0.00 0.00 65 1017.7
20260831033113 85 0 0.0 0.0 0.00 0.00 0.00 64 1017.8
20260831031603 86 0 0.0 0.0 0.00 0.00 0.00 63 1017.7
20260831030050 86 0 0.0 1.0 0.00 0.00 0.00 63 1017.6
20260831024548 87 0 0.0 2.0 0.00 0.00 0.00 63 1017.3
20260831023056 87 119 0.0 3.0 0.00 0.00 0.00 63 1017.4
20260831021552 87 0 0.0 1.0 0.00 0.00 0.00 62 1017.1
20260831020050 88 0 0.0 5.0 0.00 0.00 0.00 62 1017.0
20260831014603 88 0 0.0 3.0 0.00 0.00 0.00 61 1017.0
20260831013054 88 107 0.0 3.0 0.00 0.00 0.00 61 1016.8
20260831011553 89 0 0.0 4.0 0.00 0.00 0.00 60 1016.6
20260831010052 89 0 0.0 4.0 0.00 0.00 0.00 60 1016.4
20260831004548 90 0 0.0 2.0 0.00 0.00 0.00 59 1016.3
20260831003058 90 0 0.0 3.0 0.00 0.00 0.00 58 1016.3
20260831001552 91 0 0.0 4.0 0.00 0.00 0.00 57 1016.3
20260831000049 91 0 0.0 1.0 0.00 0.00 0.00 57 1016.3
20260830234603 92 115 0.0 3.0 0.00 0.00 0.00 56 1016.3
20260830233052 92 0 0.0 6.0 0.00 0.00 0.00 54 1016.2
20260830231551 93 58 1.0 5.0 0.00 0.00 0.00 53 1016.1
20260830224557 94 0 1.0 6.0 0.00 0.00 0.00 50 1016.1
20260830223052 94 258 0.0 5.0 0.00 0.00 0.00 50 1016.1
20260830221548 94 202 3.0 9.0 0.00 0.00 0.00 50 1016.2
20260830220101 94 0 1.0 10.0 0.00 0.00 0.00 50 1016.3
20260830214614 94 0 0.0 2.0 0.00 0.00 0.00 49 1016.2
20260830213057 95 192 1.0 6.0 0.00 0.00 0.00 49 1016.3
20260830211555 95 0 0.0 7.0 0.00 0.00 0.00 49 1016.4
20260830210052 95 142 1.0 6.0 0.00 0.00 0.00 48 1016.5
20260830204602 96 0 0.0 3.0 0.00 0.00 0.00 48 1016.7
20260830203056 96 0 1.0 6.0 0.00 0.00 0.00 48 1016.7
20260830201553 95 0 4.0 8.0 0.00 0.00 0.00 49 1017.0
20260830200059 95 0 0.0 6.0 0.00 0.00 0.00 48 1017.1
20260830194606 95 0 1.0 6.0 0.00 0.00 0.00 49 1017.4
20260830193125 96 152 2.0 7.0 0.00 0.00 0.00 46 1017.8
20260830191549 96 257 0.0 7.0 0.00 0.00 0.00 48 1017.7
20260830190050 96 213 1.0 6.0 0.00 0.00 0.00 48 1017.9
20260830184555 95 16 1.0 7.0 0.00 0.00 0.00 48 1018.0
20260830183052 95 256 1.0 9.0 0.00 0.00 0.00 49 1018.2
20260830181549 94 180 2.0 8.0 0.00 0.00 0.00 49 1018.3
20260830174553 94 71 2.0 7.0 0.00 0.00 0.00 49 1018.3
20260830173108 94 0 0.0 6.0 0.00 0.00 0.00 50 1018.5
20260830171558 93 0 0.0 6.0 0.00 0.00 0.00 50 1018.9
20260830170050 93 0 1.0 6.0 0.00 0.00 0.00 51 1019.1
20260830164556 93 290 2.0 5.0 0.00 0.00 0.00 50 1019.0
20260830163052 94 306 0.0 4.0 0.00 0.00 0.00 50 1019.1
20260830161549 93 327 1.0 4.0 0.00 0.00 0.00 50 1019.3
20260830160047 92 0 0.0 6.0 0.00 0.00 0.00 50 1019.4
20260830154552 91 129 1.0 6.0 0.00 0.00 0.00 50 1019.4
20260830153054 90 0 1.0 4.0 0.00 0.00 0.00 52 1019.1
20260830151548 90 171 2.0 7.0 0.00 0.00 0.00 53 1019.3
20260830150054 89 0 0.0 3.0 0.00 0.00 0.00 57 1019.3
20260830144607 87 150 0.0 2.0 0.00 0.00 0.00 61 1019.3
20260830143054 85 0 0.0 3.0 0.00 0.00 0.00 63 1019.5
20260830141548 85 0 0.0 2.0 0.00 0.00 0.00 64 1019.7
20260830140049 83 0 0.0 0.0 0.00 0.00 0.00 66 1019.8
20260830134554 81 0 0.0 5.0 0.00 0.00 0.00 69 1019.7
20260830133106 80 146 0.0 4.0 0.00 0.00 0.00 69 1019.7
20260830131548 78 0 0.0 0.0 0.00 0.00 0.00 74 1019.7
20260830130047 75 0 0.0 0.0 0.00 0.00 0.00 79 1019.6
20260830124556 73 128 0.0 2.0 0.00 0.00 0.00 83 1019.5
20260830123059 71 0 0.0 0.0 0.00 0.00 0.00 86 1019.3
20260830121556 70 0 0.0 0.0 0.00 0.00 0.00 88 1019.3
20260830120101 69 0 0.0 0.0 0.00 0.00 0.00 88 1019.1
20260830114610 69 0 0.0 0.0 0.00 0.00 0.00 88 1018.8
20260830113054 69 0 0.0 0.0 0.00 0.00 0.00 88 1018.8
20260830111551 69 0 0.0 0.0 0.00 0.00 0.00 88 1018.6
20260830110047 69 0 0.0 0.0 0.00 0.00 0.00 88 1018.3
20260830104617 69 0 0.0 0.0 0.00 0.00 0.00 88 1018.2
20260830103055 69 0 0.0 0.0 0.00 0.00 0.00 87 1018.0
20260830101548 69 0 0.0 0.0 0.00 0.00 0.00 87 1018.1
20260830100048 69 0 0.0 0.0 0.00 0.00 0.00 87 1018.0
20260830094554 69 0 0.0 0.0 0.00 0.00 0.00 87 1018.0
20260830093100 69 0 0.0 0.0 0.00 0.00 0.00 86 1018.0
20260830091548 70 0 0.0 0.0 0.00 0.00 0.00 86 1018.1
20260830090057 70 0 0.0 0.0 0.00 0.00 0.00 85 1018.1
20260830084548 70 0 0.0 0.0 0.00 0.00 0.00 85 1018.1
20260830083059 70 0 0.0 0.0 0.00 0.00 0.00 85 1018.1
20260830081552 70 0 0.0 0.0 0.00 0.00 0.00 84 1018.2
20260830080048 70 0 0.0 0.0 0.00 0.00 0.00 84 1018.1